TimeCST,TemperatureF,Dew PointF,Humidity,Sea Level PressureIn,VisibilityMPH,Wind Direction,Wind SpeedMPH,Gust SpeedMPH,PrecipitationIn,Events,Conditions,WindDirDegrees,DateUTC
12:15 AM,39.9,28.8,64,30.08,10.0,South,6.9,-,N/A,,Clear,170,2013-02-06 06:15:00
12:35 AM,39.4,28.8,66,30.07,10.0,South,5.8,-,N/A,,Clear,180,2013-02-06 06:35:00
12:55 AM,39.6,28.8,65,30.07,10.0,SSW,5.8,-,N/A,,Clear,200,2013-02-06 06:55:00
1:15 AM,39.4,28.8,66,30.07,10.0,SSW,4.6,-,N/A,,Clear,210,2013-02-06 07:15:00
1:35 AM,37.9,28.6,69,30.07,10.0,South,5.8,-,N/A,,Clear,170,2013-02-06 07:35:00
1:55 AM,37.8,28.8,70,30.07,10.0,South,6.9,-,N/A,,Clear,180,2013-02-06 07:55:00
2:15 AM,39.6,28.9,66,30.07,10.0,SSW,5.8,-,N/A,,Clear,200,2013-02-06 08:15:00
2:35 AM,39.4,29.1,67,30.06,10.0,South,6.9,-,N/A,,Clear,190,2013-02-06 08:35:00
2:55 AM,40.5,29.5,65,30.06,10.0,South,3.5,-,N/A,,Clear,180,2013-02-06 08:55:00
3:15 AM,40.3,29.5,65,30.06,10.0,South,6.9,-,N/A,,Clear,180,2013-02-06 09:15:00
3:35 AM,40.3,29.3,65,30.06,10.0,South,6.9,-,N/A,,Clear,180,2013-02-06 09:35:00
3:55 AM,39.7,29.1,66,30.06,10.0,SSE,5.8,-,N/A,,Clear,150,2013-02-06 09:55:00
4:55 AM,39.4,29.1,67,30.06,10.0,SSW,8.1,-,N/A,,Scattered Clouds,200,2013-02-06 10:55:00
5:15 AM,39.0,29.1,68,30.06,10.0,SSW,4.6,-,N/A,,Scattered Clouds,210,2013-02-06 11:15:00
5:35 AM,37.9,29.1,71,30.05,10.0,South,8.1,-,N/A,,Scattered Clouds,180,2013-02-06 11:35:00
5:55 AM,39.9,29.7,67,30.04,10.0,South,10.4,-,N/A,,Scattered Clouds,180,2013-02-06 11:55:00
6:15 AM,41.0,29.8,64,30.04,10.0,SSW,8.1,-,N/A,,Clear,200,2013-02-06 12:15:00
6:35 AM,40.5,29.7,65,30.04,10.0,South,9.2,-,N/A,,Clear,180,2013-02-06 12:35:00
6:55 AM,39.6,29.7,68,30.04,10.0,South,9.2,-,N/A,,Clear,170,2013-02-06 12:55:00
7:35 AM,40.1,30.0,67,30.06,10.0,SSW,8.1,-,N/A,,Clear,210,2013-02-06 13:35:00
7:55 AM,40.8,30.0,65,30.06,10.0,South,8.1,-,N/A,,Clear,190,2013-02-06 13:55:00
8:15 AM,43.2,30.6,61,30.06,10.0,South,8.1,-,N/A,,Clear,190,2013-02-06 14:15:00
8:35 AM,46.2,31.5,56,30.06,10.0,SSW,5.8,-,N/A,,Clear,200,2013-02-06 14:35:00
8:55 AM,49.8,32.0,50,30.07,10.0,Calm,Calm,-,N/A,,Clear,0,2013-02-06 14:55:00
9:15 AM,53.8,32.2,44,30.07,10.0,Calm,Calm,-,N/A,,Clear,0,2013-02-06 15:15:00
9:35 AM,57.2,32.5,39,30.07,10.0,Calm,Calm,-,N/A,,Clear,0,2013-02-06 15:35:00
9:55 AM,59.5,32.2,36,30.07,10.0,Calm,Calm,-,N/A,,Clear,0,2013-02-06 15:55:00
10:15 AM,61.5,32.0,33,30.07,10.0,Calm,Calm,-,N/A,,Clear,0,2013-02-06 16:15:00
10:35 AM,63.3,31.1,30,30.07,10.0,South,6.9,-,N/A,,Clear,190,2013-02-06 16:35:00
10:55 AM,64.2,31.6,30,30.07,10.0,South,4.6,-,N/A,,Clear,190,2013-02-06 16:55:00
11:15 AM,64.8,32.5,30,30.07,10.0,SW,10.4,-,N/A,,Clear,220,2013-02-06 17:15:00
11:35 AM,66.2,33.3,29,30.06,10.0,South,10.4,-,N/A,,Clear,190,2013-02-06 17:35:00
11:55 AM,66.6,34.0,30,30.05,10.0,South,12.7,18.4,N/A,,Clear,170,2013-02-06 17:55:00
12:15 PM,67.3,34.3,30,30.04,10.0,South,12.7,18.4,N/A,,Clear,190,2013-02-06 18:15:00
12:35 PM,68.2,33.8,28,30.04,10.0,SW,12.7,16.1,N/A,,Clear,220,2013-02-06 18:35:00
12:55 PM,67.8,33.3,28,30.02,10.0,SSE,12.7,-,N/A,,Clear,160,2013-02-06 18:55:00
1:15 PM,68.4,32.9,27,30.01,10.0,SW,11.5,-,N/A,,Clear,220,2013-02-06 19:15:00
1:35 PM,68.7,32.7,26,30.01,10.0,SSW,13.8,-,N/A,,Clear,210,2013-02-06 19:35:00
1:55 PM,68.4,31.8,26,30.00,10.0,SW,15.0,18.4,N/A,,Clear,220,2013-02-06 19:55:00
2:15 PM,68.4,32.2,26,29.98,10.0,SW,8.1,-,N/A,,Scattered Clouds,220,2013-02-06 20:15:00
2:35 PM,70.0,32.7,25,29.98,10.0,SSE,9.2,23.0,N/A,,Scattered Clouds,160,2013-02-06 20:35:00
2:55 PM,69.6,33.3,26,29.97,10.0,South,13.8,20.7,N/A,,Scattered Clouds,190,2013-02-06 20:55:00
3:35 PM,69.8,34.0,27,29.96,10.0,SSE,12.7,19.6,N/A,,Overcast,160,2013-02-06 21:35:00
3:55 PM,69.6,33.6,27,29.96,10.0,SSW,12.7,21.9,N/A,,Mostly Cloudy,200,2013-02-06 21:55:00
4:15 PM,69.3,32.7,26,29.96,10.0,South,12.7,16.1,N/A,,Mostly Cloudy,170,2013-02-06 22:15:00
4:35 PM,70.9,32.2,24,29.96,10.0,South,9.2,-,N/A,,Scattered Clouds,170,2013-02-06 22:35:00
4:55 PM,69.1,32.0,25,29.96,10.0,SSE,16.1,20.7,N/A,,Scattered Clouds,160,2013-02-06 22:55:00
5:15 PM,70.2,32.0,24,29.96,10.0,SSW,15.0,21.9,N/A,,Clear,210,2013-02-06 23:15:00
5:35 PM,68.7,31.8,25,29.97,10.0,South,12.7,-,N/A,,Clear,180,2013-02-06 23:35:00
5:55 PM,67.1,31.5,27,29.97,10.0,South,11.5,-,N/A,,Clear,190,2013-02-06 23:55:00
6:15 PM,66.2,31.3,27,29.98,10.0,South,5.8,-,N/A,,Clear,170,2013-02-07 00:15:00
6:35 PM,64.8,31.5,29,29.98,10.0,SW,9.2,-,N/A,,Clear,220,2013-02-07 00:35:00
6:55 PM,62.1,32.0,32,29.99,10.0,SW,8.1,-,N/A,,Clear,220,2013-02-07 00:55:00
7:15 PM,59.0,32.0,36,30.00,10.0,SSW,6.9,-,N/A,,Clear,200,2013-02-07 01:15:00
7:35 PM,55.0,31.5,41,30.01,10.0,South,8.1,-,N/A,,Clear,190,2013-02-07 01:35:00
7:55 PM,52.3,31.3,45,30.02,10.0,SW,6.9,-,N/A,,Clear,220,2013-02-07 01:55:00
8:15 PM,51.3,31.5,47,30.02,10.0,SSE,6.9,-,N/A,,Clear,150,2013-02-07 02:15:00
8:35 PM,52.2,32.0,46,30.02,10.0,SSE,5.8,-,N/A,,Clear,160,2013-02-07 02:35:00
8:55 PM,50.9,32.0,48,30.03,10.0,South,6.9,-,N/A,,Clear,190,2013-02-07 02:55:00
9:15 PM,51.1,31.8,48,30.03,10.0,South,8.1,-,N/A,,Clear,170,2013-02-07 03:15:00
9:35 PM,51.8,31.8,47,30.03,10.0,South,6.9,-,N/A,,Clear,180,2013-02-07 03:35:00
9:55 PM,51.6,31.6,46,30.04,10.0,South,8.1,-,N/A,,Clear,170,2013-02-07 03:55:00
10:15 PM,49.5,31.8,51,30.04,10.0,South,9.2,-,N/A,,Clear,190,2013-02-07 04:15:00
10:35 PM,46.8,31.6,56,30.04,10.0,South,9.2,-,N/A,,Clear,190,2013-02-07 04:35:00
10:55 PM,47.3,31.8,55,30.04,10.0,South,9.2,-,N/A,,Clear,190,2013-02-07 04:55:00
11:15 PM,47.1,31.8,55,30.04,10.0,South,9.2,-,N/A,,Clear,180,2013-02-07 05:15:00
11:35 PM,45.1,31.5,59,30.05,10.0,SSW,8.1,-,N/A,,Clear,200,2013-02-07 05:35:00
11:55 PM,44.2,31.6,61,30.05,10.0,South,8.1,-,N/A,,Clear,190,2013-02-07 05:55:00